M I D A S
Marine Information and Data Acquisition System
Tripno 695 of the Zeeleeuw from 2004-04-15 06:10:35 to 2004-04-15 15:07:12
Back to CruiseResearch ActivitiesStationsMapUnderway DataData graphs

EquipmentUnitsComments
TimeDGPSUTC
LatitudeDGPSDM.mWGS84
LongitudeDGPSDM.mWGS84
SpeedMeteo Stationm/sRelative wind speed
DirectionMeteo StationdegRelative wind direction
TemperatureMeteo Stationdeg CelciusAir temperature
PressureMeteo StationPaAtmospheric pressure
HumidityMeteo Station%Relative humidity
Missing or incorrect values are displayed as -999
Metereological data collected by the RV Zeeleeuw from 2004-04-15 06:10:35 to 2004-04-15 15:07:12
Time Latitude Longitude Speed Direction Temperature Pressure Humidity
2004-04-15 06:11 51°13.597 2°56.095 1.1 35 9 101690 74
2004-04-15 06:12 51°13.615 2°56.02 0.7 120 9 101690 74
2004-04-15 06:13 51°13.649 2°55.91 0.7 134 9.1 101690 74
2004-04-15 06:14 51°13.677 2°55.787 1.5 126 9 101690 73
2004-04-15 06:15 51°13.684 2°55.747 2.3 78 9.1 101690 73
2004-04-15 06:16 51°13.727 2°55.761 3 160 9.1 101690 73
2004-04-15 06:17 51°13.734 2°55.759 0.8 162 9.1 101690 73
2004-04-15 06:18 51°13.812 2°55.65 1.2 11 9.1 101690 73
2004-04-15 06:19 51°13.92 2°55.572 1.5 41 9.1 101690 73
2004-04-15 06:20 51°14.038 2°55.5 0.6 44 9.1 101690 73
2004-04-15 06:21 51°14.165 2°55.41 1.4 20 9.1 101690 72
2004-04-15 06:22 51°14.292 2°55.229 1.9 325 9.2 101690 72
2004-04-15 06:23 51°14.403 2°54.959 4 332 9.2 101680 72
2004-04-15 06:24 51°14.514 2°54.642 4.5 329 9.3 101680 72
2004-04-15 06:25 51°14.623 2°54.317 4 339 9.3 101680 72
2004-04-15 06:26 51°14.732 2°53.991 4.2 333 9.4 101680 72
2004-04-15 06:27 51°14.84 2°53.667 3.8 319 9.5 101670 71
2004-04-15 06:28 51°14.949 2°53.34 3.8 328 9.6 101680 71
2004-04-15 06:29 51°15.049 2°53.005 4.6 332 9.6 101680 71
2004-04-15 06:30 51°15.135 2°52.658 4.2 325 9.6 101680 72
2004-04-15 06:31 51°15.222 2°52.311 4.5 342 9.6 101670 72
2004-04-15 06:32 51°15.293 2°51.954 5.3 324 9.6 101670 72
2004-04-15 06:33 51°15.328 2°51.583 7.1 327 9.6 101670 72
2004-04-15 06:34 51°15.286 2°51.21 7.2 326 9.6 101670 73
2004-04-15 06:35 51°15.244 2°50.841 7.4 330 9.6 101660 73
2004-04-15 06:36 51°15.203 2°50.46 7.2 324 9.6 101660 73
2004-04-15 06:37 51°15.166 2°50.084 7.9 323 9.5 101660 73
2004-04-15 06:38 51°15.129 2°49.709 7.8 320 9.5 101660 73
2004-04-15 06:39 51°15.093 2°49.336 8.1 325 9.4 101660 74
2004-04-15 06:40 51°15.06 2°48.962 7.6 328 9.3 101660 74
2004-04-15 06:41 51°15.026 2°48.589 8.1 317 9.3 101660 75
2004-04-15 06:42 51°15.006 2°48.22 6.7 43 9.2 101660 75
2004-04-15 06:43 51°15.032 2°47.848 5.9 314 9.2 101670 76
2004-04-15 06:44 51°15.032 2°47.477 7.4 315 9.2 101660 76
2004-04-15 06:45 51°15.002 2°47.115 7.3 322 9.2 101660 76
2004-04-15 06:46 51°14.967 2°46.755 7.5 317 9.2 101660 76
2004-04-15 06:47 51°14.944 2°46.388 7.7 42 9.3 101660 77
2004-04-15 06:48 51°14.897 2°46.028 8.6 321 9.3 101660 77
2004-04-15 06:49 51°14.843 2°45.661 8 318 9.2 101660 77
2004-04-15 06:50 51°14.802 2°45.303 7.5 322 9.2 101670 77
2004-04-15 06:51 51°14.762 2°44.939 7.6 321 9.3 101660 78
2004-04-15 06:52 51°14.723 2°44.572 7.5 319 9.3 101660 78
2004-04-15 06:53 51°14.685 2°44.211 7.6 326 9.3 101660 78
2004-04-15 06:54 51°14.645 2°43.837 7.8 318 9.3 101670 78
2004-04-15 06:55 51°14.607 2°43.47 8 320 9.3 101660 77
2004-04-15 06:56 51°14.57 2°43.102 7.7 318 9.3 101670 77
2004-04-15 06:57 51°14.532 2°42.735 7.9 323 9.3 101660 78
2004-04-15 06:58 51°14.497 2°42.366 7.4 327 9.3 101660 78
2004-04-15 06:59 51°14.46 2°42 7.5 325 9.3 101670 78
2004-04-15 07:00 51°14.423 2°41.636 7.7 323 9.3 101670 78
2004-04-15 07:01 51°14.386 2°41.271 7.8 324 9.3 101660 78
2004-04-15 07:02 51°14.35 2°40.906 7.5 325 9.3 101670 79
2004-04-15 07:03 51°14.312 2°40.544 7 328 9.4 101670 79
2004-04-15 07:04 51°14.275 2°40.183 6.8 330 9.4 101670 79
2004-04-15 07:05 51°14.237 2°39.824 7.4 322 9.5 101670 79
2004-04-15 07:06 51°14.2 2°39.474 7.3 327 9.5 101670 78
2004-04-15 07:07 51°14.162 2°39.113 7.4 333 9.6 101670 78
2004-04-15 07:08 51°14.121 2°38.759 7.2 334 9.6 101670 78
2004-04-15 07:09 51°14.052 2°38.408 8.7 332 9.7 101660 79
2004-04-15 07:10 51°13.962 2°38.082 8.5 331 9.7 101660 78
2004-04-15 07:11 51°13.872 2°37.75 8.4 328 9.7 101660 78
2004-04-15 07:12 51°13.783 2°37.416 8.6 326 9.8 101660 77
2004-04-15 07:13 51°13.689 2°37.087 8.6 329 9.8 101660 77
2004-04-15 07:14 51°13.582 2°36.768 8.3 334 9.8 101660 77
2004-04-15 07:15 51°13.478 2°36.449 9.2 327 9.8 101660 77
2004-04-15 07:16 51°13.36 2°36.145 9.5 330 9.8 101660 77
2004-04-15 07:17 51°13.231 2°35.852 9.3 332 9.8 101650 77
2004-04-15 07:18 51°13.103 2°35.557 9.3 329 9.8 101650 77
2004-04-15 07:19 51°12.977 2°35.261 9.3 327 9.8 101650 77
2004-04-15 07:20 51°12.85 2°34.97 10.2 330 9.8 101650 77
2004-04-15 07:21 51°12.708 2°34.689 12.2 326 9.8 101650 77
2004-04-15 07:22 51°12.563 2°34.434 11 333 9.7 101650 77
2004-04-15 07:23 51°12.401 2°34.205 10 334 9.7 101650 77
2004-04-15 07:24 51°12.239 2°33.97 11 337 9.7 101650 77
2004-04-15 07:25 51°12.082 2°33.743 12.6 334 9.7 101640 77
2004-04-15 07:26 51°11.944 2°33.565 9.6 329 9.7 101640 77
2004-04-15 07:27 51°11.858 2°33.528 8 322 9.7 101660 76
2004-04-15 07:28 51°11.804 2°33.495 7.7 323 9.7 101660 76
2004-04-15 07:29 51°11.758 2°33.483 7.6 325 9.7 101660 76
2004-04-15 07:30 51°11.714 2°33.47 8.1 326 9.7 101660 76
2004-04-15 07:31 51°11.668 2°33.435 8 43 9.6 101660 76
2004-04-15 07:32 51°11.63 2°33.377 7.2 306 9.6 101660 77
2004-04-15 07:33 51°11.601 2°33.309 7.5 304 9.6 101660 77
2004-04-15 07:34 51°11.58 2°33.233 7.6 297 9.6 101660 77
2004-04-15 07:35 51°11.558 2°33.159 7.2 296 9.6 101660 76
2004-04-15 07:36 51°11.536 2°33.087 7.1 294 9.6 101660 76
2004-04-15 07:37 51°11.515 2°33.013 7.2 292 9.6 101660 76
2004-04-15 07:38 51°11.496 2°32.938 6 289 9.6 101660 76
2004-04-15 07:39 51°11.472 2°32.871 7.5 305 9.7 101660 76
2004-04-15 07:40 51°11.439 2°32.815 6.9 306 9.7 101660 76
2004-04-15 07:41 51°11.405 2°32.757 6.8 309 9.7 101660 76
2004-04-15 07:42 51°11.366 2°32.705 6.6 312 9.6 101660 76
2004-04-15 07:43 51°11.328 2°32.654 6.6 311 9.7 101650 76
2004-04-15 07:44 51°11.291 2°32.601 6.4 315 9.7 101650 77
2004-04-15 07:45 51°11.251 2°32.553 6.5 317 9.7 101660 77
2004-04-15 07:46 51°11.208 2°32.511 7.1 320 9.7 101650 77
2004-04-15 07:47 51°11.16 2°32.486 7 334 9.7 101650 77
2004-04-15 07:48 51°11.108 2°32.477 7.3 337 9.7 101650 77
2004-04-15 07:49 51°11.053 2°32.473 7.5 334 9.7 101650 76
2004-04-15 07:50 51°11 2°32.464 7.2 333 9.7 101650 76
2004-04-15 07:51 51°10.948 2°32.448 6.7 326 9.7 101650 76
2004-04-15 07:52 51°10.901 2°32.414 6.6 228 9.8 101650 77
2004-04-15 07:53 51°10.867 2°32.359 6.5 302 9.8 101650 77
2004-04-15 07:54 51°10.842 2°32.294 6.5 308 9.8 101650 77
2004-04-15 07:55 51°10.815 2°32.231 5.8 307 9.8 101650 77
2004-04-15 07:56 51°10.782 2°32.176 7 313 9.8 101650 77
2004-04-15 07:57 51°10.749 2°32.119 6 315 9.8 101650 77
2004-04-15 07:58 51°10.718 2°32.063 6.1 228 9.8 101650 78
2004-04-15 07:59 51°10.686 2°32.007 6.2 311 9.9 101650 78
2004-04-15 08:00 51°10.655 2°31.949 5.5 310 9.8 101650 78
2004-04-15 08:01 51°10.625 2°31.892 5.6 44 9.9 101650 78
2004-04-15 08:02 51°10.595 2°31.834 5.6 229 9.9 101640 78
2004-04-15 08:03 51°10.567 2°31.776 5.8 308 9.9 101640 78
2004-04-15 08:04 51°10.543 2°31.715 5.5 307 9.9 101650 78
2004-04-15 08:05 51°10.522 2°31.653 5.5 304 9.9 101640 78
2004-04-15 08:06 51°10.505 2°31.59 5.6 301 9.9 101650 78
2004-04-15 08:07 51°10.491 2°31.537 4.8 302 9.9 101650 78
2004-04-15 08:08 51°10.478 2°31.511 4.9 305 9.9 101650 78
2004-04-15 08:09 51°10.464 2°31.495 5.2 304 10 101650 78
2004-04-15 08:10 51°10.469 2°31.414 2.3 257 10 101650 78
2004-04-15 08:11 51°10.553 2°31.361 3.4 122 9.9 101650 77
2004-04-15 08:12 51°10.63 2°31.419 3.3 118 10 101660 78
2004-04-15 08:13 51°10.683 2°31.494 3.5 115 10 101660 78
2004-04-15 08:14 51°10.728 2°31.572 3.7 113 10 101660 78
2004-04-15 08:15 51°10.773 2°31.654 4 111 9.9 101660 78
2004-04-15 08:16 51°10.814 2°31.739 4.3 107 9.9 101660 78
2004-04-15 08:17 51°10.853 2°31.821 4.5 115 9.9 101670 78
2004-04-15 08:18 51°10.896 2°31.895 3.6 123 9.9 101660 78
2004-04-15 08:19 51°10.943 2°31.961 3.9 131 10 101660 78
2004-04-15 08:20 51°10.994 2°32.024 3.5 132 10 101660 77
2004-04-15 08:21 51°11.042 2°32.085 3.6 133 10 101660 77
2004-04-15 08:22 51°11.092 2°32.149 3.8 132 10.1 101670 77
2004-04-15 08:23 51°11.141 2°32.213 3.3 128 10.1 101670 77
2004-04-15 08:24 51°11.189 2°32.279 3.7 133 10.1 101670 77
2004-04-15 08:25 51°11.238 2°32.345 4 129 10.1 101670 77
2004-04-15 08:26 51°11.286 2°32.411 3.5 138 10.1 101670 76
2004-04-15 08:27 51°11.334 2°32.475 3.6 132 10.2 101670 76
2004-04-15 08:28 51°11.383 2°32.54 3.8 137 10.2 101670 76
2004-04-15 08:29 51°11.432 2°32.606 3.8 134 10.2 101670 76
2004-04-15 08:30 51°11.481 2°32.673 3.6 135 10.3 101670 76
2004-04-15 08:31 51°11.528 2°32.738 3.5 133 10.3 101670 76
2004-04-15 08:32 51°11.578 2°32.809 3.6 128 10.3 101670 76
2004-04-15 08:33 51°11.625 2°32.877 3.5 140 10.3 101670 76
2004-04-15 08:34 51°11.674 2°32.946 3.5 134 10.4 101670 75
2004-04-15 08:35 51°11.722 2°33.015 3.1 132 10.4 101670 75
2004-04-15 08:36 51°11.77 2°33.088 3 129 10.4 101670 75
2004-04-15 08:37 51°11.817 2°33.16 3.1 131 10.5 101670 75
2004-04-15 08:38 51°11.864 2°33.231 3.6 129 10.5 101670 75
2004-04-15 08:39 51°11.912 2°33.303 3.3 136 10.5 101670 75
2004-04-15 08:40 51°11.959 2°33.375 2.7 133 10.5 101660 75
2004-04-15 08:41 51°12.003 2°33.446 2.6 125 10.5 101660 74
2004-04-15 08:42 51°12.05 2°33.519 2.8 128 10.6 101670 74
2004-04-15 08:43 51°12.096 2°33.59 3.3 128 10.6 101670 74
2004-04-15 08:44 51°12.141 2°33.662 3 128 10.6 101670 74
2004-04-15 08:45 51°12.184 2°33.735 3.4 126 10.6 101660 74
2004-04-15 08:46 51°12.222 2°33.816 3.6 102 10.6 101670 74
2004-04-15 08:47 51°12.255 2°33.91 3.9 96 10.6 101670 74
2004-04-15 08:48 51°12.285 2°34.012 4 90 10.6 101670 75
2004-04-15 08:49 51°12.314 2°34.105 3.4 94 10.5 101670 75
2004-04-15 08:50 51°12.343 2°34.185 3.4 108 10.5 101670 76
2004-04-15 08:51 51°12.401 2°34.27 2.8 141 10.5 101660 76
2004-04-15 08:52 51°12.463 2°34.318 2.3 173 10.5 101670 76
2004-04-15 08:53 51°12.512 2°34.34 1.9 190 10.6 101670 76
2004-04-15 08:54 51°12.552 2°34.351 3.3 221 10.7 101670 75
2004-04-15 08:55 51°12.586 2°34.359 3.1 227 10.7 101660 74
2004-04-15 08:56 51°12.617 2°34.37 3.3 227 10.7 101660 74
2004-04-15 08:57 51°12.65 2°34.379 2 226 10.7 101660 74
2004-04-15 08:58 51°12.774 2°34.434 3.3 60 10.8 101660 74
2004-04-15 08:59 51°12.936 2°34.692 6.1 43 10.8 101660 74
2004-04-15 09:00 51°13.068 2°35.028 6.8 39 10.7 101650 74
2004-04-15 09:01 51°13.194 2°35.379 6.6 39 10.6 101650 75
2004-04-15 09:02 51°13.306 2°35.743 7.2 39 10.6 101660 75
2004-04-15 09:03 51°13.417 2°36.117 6.8 41 10.6 101650 75
2004-04-15 09:04 51°13.526 2°36.479 6.9 48 10.6 101650 75
2004-04-15 09:05 51°13.638 2°36.849 7.3 47 10.6 101660 74
2004-04-15 09:06 51°13.747 2°37.213 6.9 56 10.7 101650 74
2004-04-15 09:07 51°13.854 2°37.588 6.8 55 10.8 101650 72
2004-04-15 09:08 51°13.95 2°37.953 6.7 55 10.9 101650 71
2004-04-15 09:09 51°14.047 2°38.332 7.1 55 11 101650 70
2004-04-15 09:10 51°14.056 2°38.72 8.9 34 11.1 101640 70
2004-04-15 09:11 51°13.892 2°38.919 11.4 10 11.1 101640 72
2004-04-15 09:12 51°13.698 2°38.811 12 3 11.1 101640 72
2004-04-15 09:13 51°13.494 2°38.688 12.9 360 11.1 101640 71
2004-04-15 09:14 51°13.314 2°38.525 12.4 357 11.2 101640 70
2004-04-15 09:15 51°13.128 2°38.352 12.6 356 11.3 101640 69
2004-04-15 09:16 51°12.948 2°38.183 12.1 356 11.4 101650 68
2004-04-15 09:17 51°12.765 2°38.012 10.9 356 11.4 101650 69
2004-04-15 09:18 51°12.583 2°37.841 11 356 11.4 101650 70
2004-04-15 09:19 51°12.398 2°37.665 10.9 359 11.4 101650 71
2004-04-15 09:20 51°12.219 2°37.494 10.7 359 11.4 101650 70
2004-04-15 09:21 51°12.035 2°37.316 11.1 355 11.4 101650 70
2004-04-15 09:22 51°11.856 2°37.142 11 357 11.6 101650 69
2004-04-15 09:23 51°11.673 2°36.966 10.5 355 11.6 101650 68
2004-04-15 09:24 51°11.487 2°36.787 9 356 11.7 101650 68
2004-04-15 09:25 51°11.306 2°36.615 11.2 359 11.6 101650 71
2004-04-15 09:26 51°11.123 2°36.443 10.9 359 11.5 101650 70
2004-04-15 09:27 51°10.941 2°36.271 10.6 356 11.5 101640 68
2004-04-15 09:28 51°10.756 2°36.095 10.7 356 11.8 101640 64
2004-04-15 09:29 51°10.575 2°35.922 10 357 11.9 101640 64
2004-04-15 09:30 51°10.396 2°35.752 9.8 358 12 101640 64
2004-04-15 09:31 51°10.211 2°35.578 9.3 358 12.1 101650 63
2004-04-15 09:32 51°10.034 2°35.413 9.6 358 12.2 101650 63
2004-04-15 09:33 51°9.852 2°35.246 9.7 357 12.3 101650 61
2004-04-15 09:34 51°9.677 2°35.087 9.3 353 12.4 101650 61
2004-04-15 09:35 51°9.483 2°34.966 10.2   12.5 101650 60
2004-04-15 09:36 51°9.29 2°34.863 9.2 359 12.5 101650 66
2004-04-15 09:37 51°9.126 2°34.819 7.2 6 12.5 101640 62
2004-04-15 09:38 51°9.028 2°34.824 6.9 10 12.4 101640 62
2004-04-15 09:39 51°8.946 2°34.829 7.5 1 12.5 101650 59
2004-04-15 09:40 51°8.901 2°34.812 5.7 329 12.7 101640 58
2004-04-15 09:41 51°8.901 2°34.805 5.6 303 12.9 101640 56
2004-04-15 09:42 51°8.91 2°34.799 4.8 290 13.1 101640 56
2004-04-15 09:43 51°8.925 2°34.795 5.2 279 13.1 101640 57
2004-04-15 09:44 51°8.931 2°34.775 6.3 330 13 101640 58
2004-04-15 09:45 51°8.896 2°34.748 6.3 347 13.1 101630 55
2004-04-15 09:46 51°8.855 2°34.724 6.2 342 13.2 101630 55
2004-04-15 09:47 51°8.817 2°34.681 6.3 337 13.3 101630 57
2004-04-15 09:48 51°8.787 2°34.627 7.4 333 13.2 101630 54
2004-04-15 09:49 51°8.758 2°34.569 7.9 331 13.3 101630 51
2004-04-15 09:50 51°8.724 2°34.51 7.8 334 13.4 101630 52
2004-04-15 09:51 51°8.694 2°34.45 7.3 322 13.5 101620 48
2004-04-15 09:52 51°8.667 2°34.387 7.3 326 13.7 101620 48
2004-04-15 09:53 51°8.637 2°34.327 7.2 332 13.8 101620 49
2004-04-15 09:54 51°8.604 2°34.272 7.7 330 13.8 101620 49
2004-04-15 09:55 51°8.572 2°34.214 7.2 330 13.8 101620 49
2004-04-15 09:56 51°8.544 2°34.154 7.1 326 13.9 101620 46
2004-04-15 09:57 51°8.516 2°34.093 8 319 13.9 101620 48
2004-04-15 09:58 51°8.487 2°34.033 7.8 317 13.9 101620 46
2004-04-15 09:59 51°8.456 2°33.973 7 40 13.9 101620 49
2004-04-15 10:00 51°8.426 2°33.908 6.5 313 13.8 101630 51
2004-04-15 10:01 51°8.4 2°33.841 7 325 13.8 101620 49
2004-04-15 10:02 51°8.373 2°33.777 6.5 317 13.7 101620 49
2004-04-15 10:03 51°8.349 2°33.707 7.4 43 13.8 101620 50
2004-04-15 10:04 51°8.325 2°33.635 6.6 314 13.8 101620 50
2004-04-15 10:05 51°8.3 2°33.565 6.3 44 13.8 101620 50
2004-04-15 10:06 51°8.276 2°33.497 6.3 312 13.8 101620 48
2004-04-15 10:07 51°8.251 2°33.425 6.5 318 13.9 101620 49
2004-04-15 10:08 51°8.226 2°33.353 6.8 321 13.9 101620 47
2004-04-15 10:09 51°8.201 2°33.284 7.3 313 14 101620 46
2004-04-15 10:10 51°8.178 2°33.212 7.1 316 14 101620 49
2004-04-15 10:11 51°8.153 2°33.141 6.2 39 14 101620 44
2004-04-15 10:12 51°8.127 2°33.068 6.8 321 14.1 101620 45
2004-04-15 10:13 51°8.102 2°32.997 5.9 227 14.1 101620 46
2004-04-15 10:14 51°8.077 2°32.925 6.2 311 14.2 101620 45
2004-04-15 10:15 51°8.051 2°32.852 7.2 311 14.2 101620 47
2004-04-15 10:16 51°8.025 2°32.78 7.3 43 14.2 101620 48
2004-04-15 10:17 51°8.001 2°32.708 6.1 43 14.1 101620 48
2004-04-15 10:18 51°7.976 2°32.636 6.2 326 14.1 101620 48
2004-04-15 10:19 51°7.951 2°32.562 8 321 14 101620 49
2004-04-15 10:20 51°7.928 2°32.492 8 317 14 101610 47
2004-04-15 10:21 51°7.901 2°32.428 8.4 325 14 101610 46
2004-04-15 10:22 51°7.873 2°32.369 6.8 324 14.1 101610 42
2004-04-15 10:23 51°7.84 2°32.314 7.8 328 14.3 101610 42
2004-04-15 10:24 51°7.814 2°32.269 6.4 318 14.4 101610 43
2004-04-15 10:25 51°7.808 2°32.236 6.5 297 14.4 101620 47
2004-04-15 10:26 51°7.804 2°32.2 6.9 326 14.2 101620 48
2004-04-15 10:27 51°7.753 2°32.225 6.4 29 14.1 101620 46
2004-04-15 10:28 51°7.751 2°32.326 5.7 106 14.1 101620 46
2004-04-15 10:29 51°7.791 2°32.413 4.9 99 14 101620 47
2004-04-15 10:30 51°7.826 2°32.492 5.9 111 13.9 101630 48
2004-04-15 10:31 51°7.855 2°32.566 5.9 89 14 101620 42
2004-04-15 10:32 51°7.885 2°32.654 5.6 99 14.2 101630 45
2004-04-15 10:33 51°7.916 2°32.743 5.8 95 14.2 101620 44
2004-04-15 10:34 51°7.945 2°32.829 6.6 101 14.2 101620 45
2004-04-15 10:35 51°7.975 2°32.905 5.9 102 14.2 101620 42
2004-04-15 10:36 51°8.007 2°32.979 7 107 14.3 101620 43
2004-04-15 10:37 51°8.039 2°33.049 6.5 116 14.3 101620 46
2004-04-15 10:38 51°8.071 2°33.116 5.3 125 14.4 101620 41
2004-04-15 10:39 51°8.106 2°33.18 5 125 14.5 101620 40
2004-04-15 10:40 51°8.141 2°33.247 5.1 114 14.5 101620 43
2004-04-15 10:41 51°8.173 2°33.316 5.8 107 14.4 101620 46
2004-04-15 10:42 51°8.199 2°33.389 6 114 14.3 101620 43
2004-04-15 10:43 51°8.224 2°33.463 6.6 98 14.4 101620 45
2004-04-15 10:44 51°8.248 2°33.538 6 104 14.3 101620 45
2004-04-15 10:45 51°8.275 2°33.612 5.4 105 14.3 101620 45
2004-04-15 10:46 51°8.3 2°33.687 4.7 107 14.3 101620 45
2004-04-15 10:47 51°8.324 2°33.763 4.3 117 14.2 101620 43
2004-04-15 10:48 51°8.348 2°33.839 4.5 105 14.3 101620 43
2004-04-15 10:49 51°8.372 2°33.916 4.6 96 14.3 101620 46
2004-04-15 10:50 51°8.397 2°33.992 4.6 108 14.2 101620 45
2004-04-15 10:51 51°8.421 2°34.069 3.9 107 14.2 101620 45
2004-04-15 10:52 51°8.445 2°34.147 3.7 107 14.2 101620 47
2004-04-15 10:53 51°8.469 2°34.223 3.9 113 14.1 101610 46
2004-04-15 10:54 51°8.496 2°34.298 3.9 110 14.1 101620 46
2004-04-15 10:55 51°8.523 2°34.372 5.6 121 14.1 101620 46
2004-04-15 10:56 51°8.55 2°34.446 5 120 14 101620 45
2004-04-15 10:57 51°8.576 2°34.521 5.9 119 14.1 101610 47
2004-04-15 10:58 51°8.602 2°34.597 5 115 14 101620 47
2004-04-15 10:59 51°8.628 2°34.671 4.8 108 13.9 101620 48
2004-04-15 11:00 51°8.651 2°34.743 5.4 111 13.9 101610 47
2004-04-15 11:01 51°8.675 2°34.818 7.4 113 14 101610 48
2004-04-15 11:02 51°8.703 2°34.888 5.1 128 14.1 101610 42
2004-04-15 11:03 51°8.731 2°34.962 5.8 127 14.3 101610 42
2004-04-15 11:04 51°8.76 2°35.031 5.6 134 14.3 101610 46
2004-04-15 11:05 51°8.785 2°35.096 6.3 141 14.3 101610 44
2004-04-15 11:06 51°8.805 2°35.158 5.1 116 14.4 101610 39
2004-04-15 11:07 51°8.821 2°35.215 5.8 108 14.4 101610 43
2004-04-15 11:08 51°8.835 2°35.267 5.5 105 14.3 101610 43
2004-04-15 11:09 51°8.85 2°35.315 6 99 14.4 101610 41
2004-04-15 11:10 51°8.864 2°35.359 5.5 101 14.4 101610 41
2004-04-15 11:11 51°8.891 2°35.42 4.3 132 14.5 101610 41
2004-04-15 11:12 51°8.939 2°35.49 4.9 126 14.5 101600 42
2004-04-15 11:13 51°8.98 2°35.567 4.4 123 14.4 101610 47
2004-04-15 11:14 51°9.017 2°35.645 5.6 130 14.3 101610 42
2004-04-15 11:15 51°9.05 2°35.727 6 126 14.3 101610 39
2004-04-15 11:16 51°9.078 2°35.808 4.9 130 14.5 101610 39
2004-04-15 11:17 51°9.107 2°35.886 4.5 137 14.5 101610 41
2004-04-15 11:18 51°9.141 2°35.961 4.2 134 14.5 101610 42
2004-04-15 11:19 51°9.175 2°36.031 4.6 146 14.5 101610 41
2004-04-15 11:20 51°9.211 2°36.104 4.6 132 14.6 101610 42
2004-04-15 11:21 51°9.245 2°36.176 4 138 14.6 101610 42
2004-04-15 11:22 51°9.278 2°36.248 5 134 14.6 101610 42
2004-04-15 11:23 51°9.312 2°36.322 3.6 137 14.6 101610 42
2004-04-15 11:24 51°9.343 2°36.397 5.9 125 14.5 101610 45
2004-04-15 11:25 51°9.375 2°36.474 8.3 126 14.2 101610 46
2004-04-15 11:26 51°9.403 2°36.548 6.6 118 14.4 101600 43
2004-04-15 11:27 51°9.43 2°36.621 6.8 132 14.4 101610 44
2004-04-15 11:28 51°9.457 2°36.693 6 131 14.5 101600 44
2004-04-15 11:29 51°9.49 2°36.763 4.3 133 14.5 101600 41
2004-04-15 11:30 51°9.519 2°36.829 4.8 140 14.6 101600 40
2004-04-15 11:31 51°9.551 2°36.897 5 137 14.7 101600 40
2004-04-15 11:32 51°9.58 2°36.966 5.5 127 14.7 101600 45
2004-04-15 11:33 51°9.61 2°37.035 6.2 130 14.6 101610 40
2004-04-15 11:34 51°9.639 2°37.104 5.3 136 14.7 101610 42
2004-04-15 11:35 51°9.667 2°37.175 6.5 123 14.6 101610 42
2004-04-15 11:36 51°9.695 2°37.242 4.6 125 14.7 101610 39
2004-04-15 11:37 51°9.722 2°37.311 4.7 130 14.8 101600 39
2004-04-15 11:38 51°9.754 2°37.381 4.4 134 14.8 101610 41
2004-04-15 11:39 51°9.783 2°37.449 5.6 225 14.8 101610 39
2004-04-15 11:40 51°9.81 2°37.515 5.5 127 14.8 101610 41
2004-04-15 11:41 51°9.835 2°37.58 4.9 129 14.7 101600 44
2004-04-15 11:42 51°9.861 2°37.65 5.8 134 14.6 101600 44
2004-04-15 11:43 51°9.886 2°37.717 5.9 136 14.5 101610 44
2004-04-15 11:44 51°9.908 2°37.789 5.3 130 14.6 101600 41
2004-04-15 11:45 51°9.927 2°37.86 5.3 126 14.7 101600 40
2004-04-15 11:46 51°9.944 2°37.931 5.4 136 14.7 101600 42
2004-04-15 11:47 51°9.96 2°38.006 5.4 124 14.7 101600 41
2004-04-15 11:48 51°9.977 2°38.086 4.6 144 14.8 101590 42
2004-04-15 11:49 51°10.008 2°38.176 4.2 119 14.8 101600 43
2004-04-15 11:50 51°10.002 2°38.312 6.2 41 14.7 101590 45
2004-04-15 11:51 51°9.936 2°38.372 8.5 13 14.7 101580 43
2004-04-15 11:52 51°9.888 2°38.371 6.1 4 14.8 101590 44
2004-04-15 11:53 51°9.86 2°38.358 6.8 359 14.7 101590 45
2004-04-15 11:54 51°9.844 2°38.344 8.1 356 14.6 101590 46
2004-04-15 11:55 51°9.835 2°38.331 7.1 338 14.6 101590 44
2004-04-15 11:56 51°9.82 2°38.3 6.9 337 14.7 101580 40
2004-04-15 11:57 51°9.797 2°38.253 7.1 346 14.7 101590 44
2004-04-15 11:58 51°9.771 2°38.201 6.6 346 14.7 101590 47
2004-04-15 11:59 51°9.751 2°38.143 6.3 336 14.6 101580 42
2004-04-15 12:00 51°9.731 2°38.089 5.9 346 14.6 101590 47
2004-04-15 12:01 51°9.71 2°38.038 5.7 346 14.7 101590 40
2004-04-15 12:02 51°9.691 2°37.983 7.7 328 14.8 101590 44
2004-04-15 12:03 51°9.674 2°37.917 5.8 323 14.8 101580 44
2004-04-15 12:04 51°9.654 2°37.851 5.4 325 14.7 101580 44
2004-04-15 12:05 51°9.631 2°37.786 6 326 14.7 101580 42
2004-04-15 12:06 51°9.607 2°37.722 6.5 323 14.8 101580 42
2004-04-15 12:07 51°9.584 2°37.658 7.1 331 14.8 101580 42
2004-04-15 12:08 51°9.56 2°37.595 8.4 337 14.9 101580 43
2004-04-15 12:09 51°9.537 2°37.532 5.5 337 14.8 101580 40
2004-04-15 12:10 51°9.514 2°37.47 4.2 351 14.8 101590 45
2004-04-15 12:11 51°9.489 2°37.406 5 353 14.6 101590 46
2004-04-15 12:12 51°9.463 2°37.342 4 347 14.6 101580 45
2004-04-15 12:13 51°9.441 2°37.274 5.6 340 14.7 101580 43
2004-04-15 12:14 51°9.424 2°37.203 4.9 341 14.8 101580 42
2004-04-15 12:15 51°9.406 2°37.135 5.9 347 14.9 101580 41
2004-04-15 12:16 51°9.385 2°37.072 5.5 341 15 101580 42
2004-04-15 12:17 51°9.361 2°37.013 6.3 347 15 101580 43
2004-04-15 12:18 51°9.337 2°36.954 7.7 350 14.8 101580 47
2004-04-15 12:19 51°9.314 2°36.895 7.8 346 14.7 101570 43
2004-04-15 12:20 51°9.292 2°36.837 6.7 348 15 101570 39
2004-04-15 12:21 51°9.27 2°36.778 6.3 347 15.2 101570 37
2004-04-15 12:22 51°9.248 2°36.718 6.8 335 15.4 101580 37
2004-04-15 12:23 51°9.225 2°36.655 6.8 349 15.5 101570 37
2004-04-15 12:24 51°9.204 2°36.591 6 342 15.4 101570 37
2004-04-15 12:25 51°9.186 2°36.518 6.4 329 15.4 101570 40
2004-04-15 12:26 51°9.171 2°36.434 6.7 322 15.2 101570 41
2004-04-15 12:27 51°9.166 2°36.347 5.7 320 15.2 101570 41
2004-04-15 12:28 51°9.169 2°36.265 4.7 314 15.2 101570 41
2004-04-15 12:29 51°9.18 2°36.185 4.2 302 15.2 101570 42
2004-04-15 12:30 51°9.198 2°36.109 3.4 283 15.2 101570 42
2004-04-15 12:31 51°9.219 2°36.045 3.1 261 15.1 101570 43
2004-04-15 12:32 51°9.241 2°35.996 5 268 14.9 101580 46
2004-04-15 12:33 51°9.264 2°35.958 4.5 266 14.7 101570 45
2004-04-15 12:34 51°9.287 2°35.928 3.5 259 14.6 101570 43
2004-04-15 12:35 51°9.33 2°35.889 1.9 256 14.8 101570 40
2004-04-15 12:36 51°9.44 2°35.946 1.9 103 15 101570 39
2004-04-15 12:37 51°9.482 2°36.027 3.7 105 15.2 101570 42
2004-04-15 12:38 51°9.485 2°36.06 4 87 15 101570 45
2004-04-15 12:39 51°9.485 2°36.086 4.1 96 14.6 101570 47
2004-04-15 12:40 51°9.484 2°36.11 3.6 108 14.6 101570 46
2004-04-15 12:41 51°9.485 2°36.132 3.8 116 14.5 101570 47
2004-04-15 12:42 51°9.486 2°36.154 3.3 122 14.4 101570 48
2004-04-15 12:43 51°9.486 2°36.174 2.9 125 14.5 101580 44
2004-04-15 12:44 51°9.485 2°36.193 3 108 14.6 101570 43
2004-04-15 12:45 51°9.485 2°36.211 3.7 105 14.5 101570 46
2004-04-15 12:46 51°9.485 2°36.229 3.5 119 14.5 101580 47
2004-04-15 12:47 51°9.484 2°36.245 4.4 110 14.5 101570 47
2004-04-15 12:48 51°9.485 2°36.34 1.7 79 14.4 101570 49
2004-04-15 12:49 51°9.568 2°36.599 4.1 25 14.3 101570 48
2004-04-15 12:50 51°9.712 2°36.891 3 39 14.3 101570 45
2004-04-15 12:51 51°9.851 2°37.187 4.2 17 14.5 101570 44
2004-04-15 12:52 51°9.987 2°37.485 3.2 15 14.7 101570 45
2004-04-15 12:53 51°10.124 2°37.782 3.2 18 14.8 101570 45
2004-04-15 12:54 51°10.259 2°38.078 3.4 17 14.9 101570 43
2004-04-15 12:55 51°10.387 2°38.372 3.4 13 15.1 101570 41
2004-04-15 12:56 51°10.523 2°38.675 4.1 10 15.2 101570 46
2004-04-15 12:57 51°10.656 2°38.973 4.6 28 14.9 101570 49
2004-04-15 12:58 51°10.785 2°39.26 4.2 27 14.7 101570 48
2004-04-15 12:59 51°10.925 2°39.569 4.2 36 14.5 101570 47
2004-04-15 13:00 51°11.062 2°39.868 3.7 29 14.5 101570 44
2004-04-15 13:01 51°11.197 2°40.169 3.9 24 14.6 101570 46
2004-04-15 13:02 51°11.323 2°40.481 4.4 40 14.5 101570 50
2004-04-15 13:03 51°11.399 2°40.829 4.3 44 14.4 101570 42
2004-04-15 13:04 51°11.498 2°41.154 3.9 33 14.5 101570 42
2004-04-15 13:05 51°11.61 2°41.481 3 31 14.5 101570 44
2004-04-15 13:06 51°11.72 2°41.803 2.4 32 14.5 101570 48
2004-04-15 13:07 51°11.825 2°42.12 3 36 14.5 101570 47
2004-04-15 13:08 51°11.922 2°42.455 2.3 37 14.5 101560 48
2004-04-15 13:09 51°12.017 2°42.785 2.7 23 14.4 101570 47
2004-04-15 13:10 51°12.102 2°43.121 3.8 32 14.4 101570 49
2004-04-15 13:11 51°12.186 2°43.457 5.7 41 14.3 101570 51
2004-04-15 13:12 51°12.27 2°43.79 5.2 53 14.1 101560 49
2004-04-15 13:13 51°12.342 2°44.129 5.1 59 14.1 101560 48
2004-04-15 13:14 51°12.402 2°44.47 4.2 54 14.2 101560 43
2004-04-15 13:15 51°12.462 2°44.809 4.1 54 14.3 101570 47
2004-04-15 13:16 51°12.521 2°45.147 4.8 27 14.3 101570 49
2004-04-15 13:17 51°12.582 2°45.477 4.8 42 14.2 101560 48
2004-04-15 13:18 51°12.666 2°45.818 4.2 25 14.2 101570 49
2004-04-15 13:19 51°12.764 2°46.13 4.8 25 14.2 101560 49
2004-04-15 13:20 51°12.873 2°46.436 4.5 27 14.3 101560 47
2004-04-15 13:21 51°13.004 2°46.717 4.4 19 14.6 101570 42
2004-04-15 13:22 51°13.145 2°46.989 4.4 30 14.8 101560 41
2004-04-15 13:23 51°13.283 2°47.26 3.9 30 14.8 101560 46
2004-04-15 13:24 51°13.425 2°47.541 3.4 37 14.8 101560 46
2004-04-15 13:25 51°13.548 2°47.795 2.9 79 14.7 101560 45
2004-04-15 13:26 51°13.589 2°47.934 2.9 129 14.7 101560 46
2004-04-15 13:27 51°13.632 2°48.009 2.3 136 14.7 101560 45
2004-04-15 13:28 51°13.663 2°48.079 3.4 127 14.7 101560 46
2004-04-15 13:29 51°13.686 2°48.144 3.5 127 14.7 101560 46
2004-04-15 13:30 51°13.704 2°48.212 3.6 131 14.7 101560 43
2004-04-15 13:31 51°13.719 2°48.277 3.2 136 15 101560 40
2004-04-15 13:32 51°13.736 2°48.344 3.3 147 15.2 101560 40
2004-04-15 13:33 51°13.755 2°48.407 2.8 172 15.2 101560 41
2004-04-15 13:34 51°13.775 2°48.471 2.8 224 15.1 101560 47
2004-04-15 13:35 51°13.8 2°48.531 2.1 250 14.7 101560 48
2004-04-15 13:36 51°13.828 2°48.59 1.2 253 14.4 101560 51
2004-04-15 13:37 51°13.856 2°48.648 1.4 266 14.1 101560 53
2004-04-15 13:38 51°13.883 2°48.707 0.7 266 13.9 101560 54
2004-04-15 13:39 51°13.909 2°48.768 0.4 264 13.8 101560 55
2004-04-15 13:40 51°13.935 2°48.828 1.3 259 13.8 101560 56
2004-04-15 13:41 51°13.959 2°48.886 2.5 271 13.8 101560 57
2004-04-15 13:42 51°13.985 2°48.945 2.8 278 13.6 101550 57
2004-04-15 13:43 51°14.013 2°49.007 3.1 283 13.4 101550 59
2004-04-15 13:44 51°14.038 2°49.069 3.2 292 13.2 101550 60
2004-04-15 13:45 51°14.064 2°49.13 3.7 295 13.1 101550 60
2004-04-15 13:46 51°14.09 2°49.191 3.5 288 13 101550 62
2004-04-15 13:47 51°14.116 2°49.254 3.7 284 12.9 101550 63
2004-04-15 13:48 51°14.142 2°49.315 3.7 295 12.8 101550 63
2004-04-15 13:49 51°14.168 2°49.376 3.3 289 12.7 101550 64
2004-04-15 13:50 51°14.194 2°49.438 3.5 296 12.6 101550 65
2004-04-15 13:51 51°14.22 2°49.499 3.5 298 12.6 101550 65
2004-04-15 13:52 51°14.246 2°49.56 3.1 302 12.6 101550 65
2004-04-15 13:53 51°14.271 2°49.621 3.1 299 12.5 101560 66
2004-04-15 13:54 51°14.298 2°49.682 3.2 288 12.5 101560 66
2004-04-15 13:55 51°14.324 2°49.743 3.3 282 12.6 101560 66
2004-04-15 13:56 51°14.349 2°49.804 2.9 280 12.6 101560 66
2004-04-15 13:57 51°14.374 2°49.865 3.1 288 12.5 101560 66
2004-04-15 13:58 51°14.4 2°49.924 3.2 287 12.4 101560 66
2004-04-15 13:59 51°14.424 2°49.986 3.1 293 12.3 101560 67
2004-04-15 14:00 51°14.445 2°50.048 2.8 292 12.3 101560 67
2004-04-15 14:01 51°14.463 2°50.114 2.7 297 12.3 101560 67
2004-04-15 14:02 51°14.478 2°50.181 3.1 290 12.2 101560 67
2004-04-15 14:03 51°14.488 2°50.236 2.6 290 12.2 101560 67
2004-04-15 14:04 51°14.499 2°50.271 3.7 293 12.1 101560 67
2004-04-15 14:05 51°14.514 2°50.293 2.3 297 12.1 101560 67
2004-04-15 14:06 51°14.527 2°50.306 3.1 306 12.1 101560 66
2004-04-15 14:07 51°14.565 2°50.327 4.6 322 12.1 101560 66
2004-04-15 14:08 51°14.616 2°50.346 4.9 315 12.1 101560 65
2004-04-15 14:09 51°14.668 2°50.379 5.3 311 12.1 101560 65
2004-04-15 14:10 51°14.712 2°50.422 4.8 303 12.2 101560 65
2004-04-15 14:11 51°14.754 2°50.472 4.9 295 12.1 101560 64
2004-04-15 14:12 51°14.795 2°50.522 4.9 303 12.1 101560 64
2004-04-15 14:13 51°14.835 2°50.572 5.4 301 12.1 101560 63
2004-04-15 14:14 51°14.874 2°50.62 4.8 300 12.3 101560 62
2004-04-15 14:15 51°14.914 2°50.672 4.5 293 12.4 101560 62
2004-04-15 14:16 51°14.951 2°50.729 4.3 301 12.4 101560 63
2004-04-15 14:17 51°14.986 2°50.788 3.5 300 12.4 101560 64
2004-04-15 14:18 51°15.02 2°50.847 3.5 303 12.4 101560 65
2004-04-15 14:19 51°15.055 2°50.905 4.3 299 12.4 101560 66
2004-04-15 14:20 51°15.09 2°50.965 4.3 296 12.4 101560 65
2004-04-15 14:21 51°15.12 2°51.027 2.6 293 12.4 101560 65
2004-04-15 14:22 51°15.15 2°51.092 4.2 292 12.3 101570 66
2004-04-15 14:23 51°15.178 2°51.159 4 292 12.3 101570 66
2004-04-15 14:24 51°15.204 2°51.227 3.3 296 12.2 101570 66
2004-04-15 14:25 51°15.231 2°51.296 3.7 297 12.2 101570 67
2004-04-15 14:26 51°15.259 2°51.361 3.8 297 12.2 101570 67
2004-04-15 14:27 51°15.286 2°51.426 3.9 297 12.2 101570 68
2004-04-15 14:28 51°15.313 2°51.491 3.7 306 12.1 101570 68
2004-04-15 14:29 51°15.34 2°51.556 3.6 303 12.1 101570 66
2004-04-15 14:30 51°15.368 2°51.623 3.9 302 12.1 101560 67
2004-04-15 14:31 51°15.395 2°51.687 3.9 300 12.2 101570 67
2004-04-15 14:32 51°15.422 2°51.754 3.8 301 12.1 101570 67
2004-04-15 14:33 51°15.449 2°51.82 4.2 298 12.1 101570 67
2004-04-15 14:34 51°15.477 2°51.887 4.6 296 12.1 101560 67
2004-04-15 14:35 51°15.503 2°51.952 4.7 296 12.1 101560 67
2004-04-15 14:36 51°15.531 2°52.022 4.3 295 12.2 101560 66
2004-04-15 14:37 51°15.558 2°52.09 4.5 298 12.2 101560 66
2004-04-15 14:38 51°15.582 2°52.157 4.5 291 12.2 101560 67
2004-04-15 14:39 51°15.597 2°52.232 4.4 280 12.2 101560 66
2004-04-15 14:40 51°15.604 2°52.308 4.6 265 12.1 101560 67
2004-04-15 14:41 51°15.601 2°52.383 2.4 256 12.1 101560 67
2004-04-15 14:42 51°15.592 2°52.45 3.2 243 12 101560 67
2004-04-15 14:43 51°15.579 2°52.497 3.7 241 12 101560 67
2004-04-15 14:44 51°15.569 2°52.533 4.1 247 12 101560 66
2004-04-15 14:45 51°15.56 2°52.587 3.1 246 12 101560 67
2004-04-15 14:46 51°15.475 2°52.693 2.6 104 12 101560 67
2004-04-15 14:47 51°15.342 2°52.607 7.3 58 12 101550 68
2004-04-15 14:48 51°15.301 2°52.434 6.5 44 11.8 101550 69
2004-04-15 14:49 51°15.297 2°52.342 4.5 36 11.8 101550 69
2004-04-15 14:50 51°15.285 2°52.326 4.6 37 11.7 101550 69
2004-04-15 14:51 51°15.275 2°52.307 4.5 46 11.7 101550 70
2004-04-15 14:52 51°15.264 2°52.287 4.8 56 11.7 101550 70
2004-04-15 14:53 51°15.253 2°52.259 5.2 63 11.6 101560 70
2004-04-15 14:54 51°15.194 2°52.165 2.8 111 11.6 101560 71
2004-04-15 14:55 51°15.091 2°52.285 3.6 320 11.6 101560 72
2004-04-15 14:56 51°15.029 2°52.591 5.3 321 11.6 101550 70
2004-04-15 14:57 51°14.974 2°52.916 5.4 323 11.7 101550 70
2004-04-15 14:58 51°14.898 2°53.242 4.2 331 11.8 101550 70
2004-04-15 14:59 51°14.816 2°53.562 4.5 328 11.9 101560 70
2004-04-15 15:00 51°14.738 2°53.877 5.5 334 11.9 101550 70
2004-04-15 15:01 51°14.665 2°54.203 5 330 11.9 101560 70
2004-04-15 15:02 51°14.573 2°54.514 4 336 12 101560 69
2004-04-15 15:03 51°14.46 2°54.81 4.1 336 12 101550 69
2004-04-15 15:04 51°14.345 2°55.103 4.2 334 12.1 101550 69
2004-04-15 15:05 51°14.22 2°55.322 1.6 344 12.1 101560 69
2004-04-15 15:06 51°14.104 2°55.426 1 44 12.2 101560 68